Regional Weather Roundup
Issued by NWS

Home | Current Version | Previous Version | Graphics & Text | Print | Product List | Glossary On
Versions: 1 2 3 4 5 6 7 8 9 10 11 12 13 14 15 16 17 18 19 20 21 22 23 24 25 26 27 28 29 30 31 32 33 34 35 36 37 38 39 40 41 42 43 44 45 46 47 48 49 50
189
ASUS45 KSLC 300010
RWRUT

UTAH REGIONAL WEATHER ROUNDUP
NATIONAL WEATHER SERVICE SALT LAKE CITY UT
600 PM MDT SAT APR 29 2017

UTZ001>011-023>025-300100-

NORTHERN UTAH

CITY           SKY/WX    TMP DP  RH WIND       PRES   REMARKS
BRIGHAM CITY   SUNNY     55  22  27 N3        30.17F
HILL AFB       MOSUNNY   53  23  30 NE6       30.17F
LOGAN          SUNNY     55  27  34 NW5       30.17F
OGDEN          PTSUNNY   54  24  31 NW9       30.17F
SALT LAKE CITY MOSUNNY   56  24  29 NE8       30.17F
TOOELE VALLEY  SUNNY     52  30  43 NW6       30.19F
WENDOVER       PTSUNNY   57  25  29 E7        30.18F
HEBER CITY     SUNNY     48  19  32 N18G29    30.16R
WEST JORDAN    SUNNY     55  36  47 NW14      30.18S

$$

UTZ011>015-024>027-300100-

CENTRAL/NORTHEAST UTAH

CITY           SKY/WX    TMP DP  RH WIND       PRES   REMARKS
PROVO AIRPORT  SUNNY     54  32  43 NW20      30.15S
MOAB/CANYONLAN CLOUDY    59  17  19 N16       30.02S
DELTA          SUNNY     55  19  24 N12G17    30.14S
PRICE          PTSUNNY   53  18  25 NW10      30.06S
ROOSEVELT      SUNNY     52  18  25 S16       30.12S
VERNAL         SUNNY     49  17  28 NE18G25   30.13S

$$

UTZ013>016-019>022-027-300100-

SOUTHERN UTAH

CITY           SKY/WX    TMP DP  RH WIND       PRES   REMARKS
BRYCE CANYON   SUNNY     47  13  25 N22G29    30.12S
CEDAR CITY     MOSUNNY   54  20  26 N18G28    30.13S
MILFORD        PTSUNNY   56  23  27 N23G29    30.13F
ST GEORGE      CLEAR     70  18  13 NE23G29   30.03F
HANKSVILLE     PTSUNNY   59  14  17 NE13G18   30.05S
BLANDING       MOSUNNY   49  16  26 N24G31    30.08R

$$

REGIONAL REPORTS     COLORADO/ARIZONA

CITY           SKY/WX    TMP DP  RH WIND       PRES   REMARKS
CRAIG, CO      CLOUDY    45  21  38 NW14G24   30.08R
GRAND JUNCTION CLOUDY    53  19  26 N16G26    30.04R
RIFLE, CO      CLOUDY    47  21  35 E7        30.05R
MONTROSE, CO   CLOUDY    49  26  41 N9        30.01S
CORTEZ, CO     MOSUNNY   47  22  37 N14G30    29.98R
COLORADO CITY    N/A     63  16  16 N9G20     30.09S
PAGE, AZ       MOSUNNY   64  16  15 NE7       30.00S
GRAND CANYON   CLOUDY    54  12  18 N13G21    30.08S
KINGMAN, AZ    SUNNY     70  18  13 N18G31    30.04S
FLAGSTAFF, AZ  MOSUNNY   52   8  17 N10G23    30.06R

$$

REGIONAL REPORTS    NEVADA/IDAHO/WYOMING

CITY           SKY/WX    TMP DP  RH WIND       PRES   REMARKS
LAS VEGAS, NV  MOSUNNY   77   7   7 VRB7      29.99F
ELY, NY        SUNNY     54  14  20 N15G21    30.18F
ELKO, NV       SUNNY     57  20  23 SW7       30.18F
POCATELLO, ID  MOSUNNY   56  29  35 SW8       30.18S
BURLEY, ID     SUNNY     57  24  28 VRB6      30.16F
FORT BRIDGER,    N/A     43  23  45 NW7       30.24S
EVANSTON, WY   CLOUDY    38  22  52 N5        30.21S WCI  34
ROCK SPRINGS,  MOSUNNY   42  17  36 NE6       30.18S
KEMMERER, WY     N/A     39  23  52 W6        30.21S WCI  35

$$




USA.gov is the U.S. government's official web portal to all federal, state and local government web resources and services.